Home > Weather > Beaumont > Past weeks

Flag for U.S.A. Weather for the Past 2 Weeks in Beaumont, Texas, U.S.A.

Now
51 °F

Sunny.


Feels Like: 46 °F
Forecast: 40 / 60 °F
Wind: 15 mph from Northwest

Location: Jefferson County Airport

Current Time: Feb 8, 2016 at 9:42:54 AM

Latest Report: Feb 8, 2016 at 8:53 AM


Visibility: 10 mi

Pressure: 30.28 "Hg

Humidity: 46%

Dew point: 31 °F

Location of BeaumontLocation

Historic Weather in Beaumont — Graph

°F

Beaumont Temperature Yesterday

Maximum temperature yesterday: 61 °F (at 1:53 PM)
Minimum temperature yesterday: 32 °F (at 4:53 AM)
Average temperature yesterday: 46 °F

High & Low Weather Summary for the Past Weeks

 TemperatureHumidityPressure
High77 °F (Jan 31, 12:53 PM)100% (Jan 29, 2:53 AM)30.50 "Hg (Jan 29, 2:53 AM)
Low31 °F (Jan 28, 5:53 AM)24% (Jan 29, 1:53 PM)29.64 "Hg (Feb 2, 2:53 AM)
Average54 °F76%30.09 "Hg
* Reported Jan 24 7:53 AM — Feb 8 7:53 AM, Beaumont, Weather by CustomWeather, © 2016

Note: Actual official high and low records may vary slightly from our data, if they occured in-between our weather recording intervals... More about our weather records

Advertising

Beaumont Weather History for the Previous 24 Hours

 ConditionsComfort  
Time TempWeatherWind HumidityBarometerVisibility
7:53 AM
Mon, Feb 8
45 °FSunny.10 mph74%30.27 "Hg10 mi
6:53 AM43 °FClear.8 mph82%30.24 "Hg10 mi
5:53 AM43 °FClear.5 mph86%30.20 "Hg10 mi
4:53 AM45 °FClear.9 mph86%30.18 "Hg10 mi
3:53 AM47 °FClear.9 mph86%30.17 "Hg10 mi
2:53 AM47 °FClear.8 mph93%30.16 "Hg10 mi
1:53 AM46 °FClear.7 mph96%30.16 "Hg10 mi
12:53 AM43 °FFog.5 mph100%30.16 "Hg3 mi
11:53 PM
Sun, Feb 7
43 °FFog.No wind97%30.16 "Hg1 mi
10:53 PM41 °FFog.No wind96%30.16 "Hg3 mi
9:53 PM45 °FClear.No wind97%30.17 "Hg10 mi
8:53 PM44 °FClear.3 mph93%30.17 "Hg10 mi
7:53 PM47 °FClear.No wind86%30.18 "Hg10 mi
6:53 PM50 °FClear.5 mph80%30.17 "Hg10 mi
5:53 PM53 °FSunny.7 mph69%30.17 "Hg10 mi
4:53 PM57 °FSunny.10 mph60%30.18 "Hg10 mi
3:53 PM58 °FSunny.15 mph58%30.16 "Hg10 mi
2:53 PM60 °FSunny.12 mph52%30.17 "Hg10 mi
1:53 PM61 °FSunny.10 mph42%30.20 "Hg10 mi
12:53 PM59 °FSunny.N/A48%30.25 "Hg10 mi
11:53 AM58 °FSunny.3 mph51%30.28 "Hg10 mi
10:53 AM56 °FSunny.6 mph58%30.30 "Hg10 mi
9:53 AM51 °FSunny.5 mph71%30.31 "Hg10 mi
Weather by CustomWeather, © 2016

See weather overviewHow to use our weather pages